Year,Month,Day,Hour,Minute,Value (Times are PST for temperature in C)
2021,04,17,00,00,9.50
2021,04,17,00,01,9.60
2021,04,17,00,02,9.60
2021,04,17,00,03,9.60
2021,04,17,00,04,9.60
2021,04,17,00,05,9.60
2021,04,17,00,06,9.60
2021,04,17,00,07,9.60
2021,04,17,00,08,9.60
2021,04,17,00,09,9.60
2021,04,17,00,10,9.60
2021,04,17,00,11,9.60
2021,04,17,00,12,9.50
2021,04,17,00,13,9.50
2021,04,17,00,14,9.50
2021,04,17,00,15,9.40
2021,04,17,00,16,9.40
2021,04,17,00,17,9.40
2021,04,17,00,18,9.30
2021,04,17,00,19,9.30
2021,04,17,00,20,9.20
2021,04,17,00,21,9.20
2021,04,17,00,22,9.20
2021,04,17,00,23,9.20
2021,04,17,00,24,9.20
2021,04,17,00,25,9.20
2021,04,17,00,26,9.20
2021,04,17,00,27,9.20
2021,04,17,00,28,9.30
2021,04,17,00,29,9.30
2021,04,17,00,30,9.30
2021,04,17,00,31,9.20
2021,04,17,00,32,9.20
2021,04,17,00,33,9.20
2021,04,17,00,34,9.20
2021,04,17,00,35,9.20
2021,04,17,00,36,9.20
2021,04,17,00,37,9.20
2021,04,17,00,38,9.10
2021,04,17,00,39,9.10
2021,04,17,00,40,9.00
2021,04,17,00,41,9.00
2021,04,17,00,42,8.90
2021,04,17,00,43,8.80
2021,04,17,00,44,8.70
2021,04,17,00,45,8.70
2021,04,17,00,46,8.60
2021,04,17,00,47,8.60
2021,04,17,00,48,8.50
2021,04,17,00,49,8.50
2021,04,17,00,50,8.40
2021,04,17,00,51,8.40
2021,04,17,00,52,8.30
2021,04,17,00,53,8.30
2021,04,17,00,54,8.20
2021,04,17,00,55,8.20
2021,04,17,00,56,8.20
2021,04,17,00,57,8.10
2021,04,17,00,58,8.10
2021,04,17,00,59,8.10
2021,04,17,01,00,8.10
2021,04,17,01,01,8.10
2021,04,17,01,02,8.10
2021,04,17,01,03,8.10
2021,04,17,01,04,8.10
2021,04,17,01,05,8.10
2021,04,17,01,06,8.20
2021,04,17,01,07,8.20
2021,04,17,01,08,8.30
2021,04,17,01,09,8.30
2021,04,17,01,10,8.30
2021,04,17,01,11,8.40
2021,04,17,01,12,8.40
2021,04,17,01,13,8.40
2021,04,17,01,14,8.50
2021,04,17,01,15,8.50
2021,04,17,01,16,8.50
2021,04,17,01,17,8.50
2021,04,17,01,18,8.50
2021,04,17,01,19,8.50
2021,04,17,01,20,8.50
2021,04,17,01,21,8.40
2021,04,17,01,22,8.40
2021,04,17,01,23,8.40
2021,04,17,01,24,8.40
2021,04,17,01,25,8.40
2021,04,17,01,26,8.40
2021,04,17,01,27,8.30
2021,04,17,01,28,8.30
2021,04,17,01,29,8.30
2021,04,17,01,30,8.30
2021,04,17,01,31,8.30
2021,04,17,01,32,8.30
2021,04,17,01,33,8.30
2021,04,17,01,34,8.30
2021,04,17,01,35,8.40
2021,04,17,01,36,8.40
2021,04,17,01,37,8.40
2021,04,17,01,38,8.40
2021,04,17,01,39,8.40
2021,04,17,01,40,8.40
2021,04,17,01,41,8.40
2021,04,17,01,42,8.40
2021,04,17,01,43,8.40
2021,04,17,01,44,8.40
2021,04,17,01,45,8.40
2021,04,17,01,46,8.30
2021,04,17,01,47,8.40
2021,04,17,01,48,8.40
2021,04,17,01,49,8.40
2021,04,17,01,50,8.40
2021,04,17,01,51,8.40
2021,04,17,01,52,8.30
2021,04,17,01,53,8.30
2021,04,17,01,54,8.30
2021,04,17,01,55,8.30
2021,04,17,01,56,8.20
2021,04,17,01,57,8.20
2021,04,17,01,58,8.20
2021,04,17,01,59,8.10
2021,04,17,02,00,8.10
2021,04,17,02,01,8.00
2021,04,17,02,02,8.00
2021,04,17,02,03,7.90
2021,04,17,02,04,7.90
2021,04,17,02,05,7.90
2021,04,17,02,06,7.80
2021,04,17,02,07,7.80
2021,04,17,02,08,7.70
2021,04,17,02,09,7.70
2021,04,17,02,10,7.60
2021,04,17,02,11,7.60
2021,04,17,02,12,7.60
2021,04,17,02,13,7.60
2021,04,17,02,14,7.60
2021,04,17,02,15,7.60
2021,04,17,02,16,7.60
2021,04,17,02,17,7.60
2021,04,17,02,18,7.60
2021,04,17,02,19,7.60
2021,04,17,02,20,7.60
2021,04,17,02,21,7.70
2021,04,17,02,22,7.80
2021,04,17,02,23,7.80
2021,04,17,02,24,7.80
2021,04,17,02,25,7.90
2021,04,17,02,26,7.90
2021,04,17,02,27,7.90
2021,04,17,02,28,7.90
2021,04,17,02,29,8.00
2021,04,17,02,30,8.00
2021,04,17,02,31,7.90
2021,04,17,02,32,7.90
2021,04,17,02,33,7.80
2021,04,17,02,34,7.80
2021,04,17,02,35,7.80
2021,04,17,02,36,7.70
2021,04,17,02,37,7.70
2021,04,17,02,38,7.60
2021,04,17,02,39,7.60
2021,04,17,02,40,7.60
2021,04,17,02,41,7.50
2021,04,17,02,42,7.50
2021,04,17,02,43,7.50
2021,04,17,02,44,7.50
2021,04,17,02,45,7.50
2021,04,17,02,46,7.50
2021,04,17,02,47,7.50
2021,04,17,02,48,7.50
2021,04,17,02,49,7.50
2021,04,17,02,50,7.50
2021,04,17,02,51,7.50
2021,04,17,02,52,7.50
2021,04,17,02,53,7.50
2021,04,17,02,54,7.50
2021,04,17,02,55,7.50
2021,04,17,02,56,7.50
2021,04,17,02,57,7.50
2021,04,17,02,58,7.50
2021,04,17,02,59,7.50
2021,04,17,03,00,7.50
2021,04,17,03,01,7.50
2021,04,17,03,02,7.50
2021,04,17,03,03,7.50
2021,04,17,03,04,7.50
2021,04,17,03,05,7.50
2021,04,17,03,06,7.40
2021,04,17,03,07,7.50
2021,04,17,03,08,7.50
2021,04,17,03,09,7.50
2021,04,17,03,10,7.50
2021,04,17,03,11,7.50
2021,04,17,03,12,7.40
2021,04,17,03,13,7.40
2021,04,17,03,14,7.40
2021,04,17,03,15,7.40
2021,04,17,03,16,7.40
2021,04,17,03,17,7.40
2021,04,17,03,18,7.40
2021,04,17,03,19,7.40
2021,04,17,03,20,7.40
2021,04,17,03,21,7.40
2021,04,17,03,22,7.40
2021,04,17,03,23,7.40
2021,04,17,03,24,7.50
2021,04,17,03,25,7.50
2021,04,17,03,26,7.60
2021,04,17,03,27,7.60
2021,04,17,03,28,7.70
2021,04,17,03,29,7.70
2021,04,17,03,30,7.80
2021,04,17,03,31,7.80
2021,04,17,03,32,7.90
2021,04,17,03,33,7.90
2021,04,17,03,34,7.90
2021,04,17,03,35,7.90
2021,04,17,03,36,7.90
2021,04,17,03,37,8.00
2021,04,17,03,38,8.00
2021,04,17,03,39,8.00
2021,04,17,03,40,8.00
2021,04,17,03,41,8.00
2021,04,17,03,42,8.00
2021,04,17,03,43,7.90
2021,04,17,03,44,7.90
2021,04,17,03,45,7.80
2021,04,17,03,46,7.80
2021,04,17,03,47,7.80
2021,04,17,03,48,7.70
2021,04,17,03,49,7.70
2021,04,17,03,50,7.60
2021,04,17,03,51,7.60
2021,04,17,03,52,7.60
2021,04,17,03,53,7.60
2021,04,17,03,54,7.60
2021,04,17,03,55,7.50
2021,04,17,03,56,7.50
2021,04,17,03,57,7.50
2021,04,17,03,58,7.40
2021,04,17,03,59,7.40
2021,04,17,04,00,7.30
2021,04,17,04,01,7.30
2021,04,17,04,02,7.20
2021,04,17,04,03,7.20
2021,04,17,04,04,7.10
2021,04,17,04,05,7.00
2021,04,17,04,06,7.00
2021,04,17,04,07,6.90
2021,04,17,04,08,6.90
2021,04,17,04,09,6.90
2021,04,17,04,10,6.90
2021,04,17,04,11,6.80
2021,04,17,04,12,6.80
2021,04,17,04,13,6.80
2021,04,17,04,14,6.80
2021,04,17,04,15,6.80
2021,04,17,04,16,6.80
2021,04,17,04,17,6.80
2021,04,17,04,18,6.80
2021,04,17,04,19,6.80
2021,04,17,04,20,6.80
2021,04,17,04,21,6.80
2021,04,17,04,22,6.80
2021,04,17,04,23,6.80
2021,04,17,04,24,6.80
2021,04,17,04,25,6.80
2021,04,17,04,26,6.80
2021,04,17,04,27,6.80
2021,04,17,04,28,6.80
2021,04,17,04,29,6.80
2021,04,17,04,30,6.80
2021,04,17,04,31,6.80
2021,04,17,04,32,6.80
2021,04,17,04,33,6.80
2021,04,17,04,34,6.80
2021,04,17,04,35,6.70
2021,04,17,04,36,6.70
2021,04,17,04,37,6.70
2021,04,17,04,38,6.70
2021,04,17,04,39,6.70
2021,04,17,04,40,6.80
2021,04,17,04,41,6.80
2021,04,17,04,42,6.70
2021,04,17,04,43,6.70
2021,04,17,04,44,6.70
2021,04,17,04,45,6.70
2021,04,17,04,46,6.70
2021,04,17,04,47,6.60
2021,04,17,04,48,6.60
2021,04,17,04,49,6.60
2021,04,17,04,50,6.60
2021,04,17,04,51,6.60
2021,04,17,04,52,6.60
2021,04,17,04,53,6.60
2021,04,17,04,54,6.50
2021,04,17,04,55,6.50
2021,04,17,04,56,6.40
2021,04,17,04,57,6.40
2021,04,17,04,58,6.30
2021,04,17,04,59,6.20
2021,04,17,05,00,6.20
2021,04,17,05,01,6.20
2021,04,17,05,02,6.10
2021,04,17,05,03,6.10
2021,04,17,05,04,6.10
2021,04,17,05,05,6.10
2021,04,17,05,06,6.20
2021,04,17,05,07,6.20
2021,04,17,05,08,6.30
2021,04,17,05,09,6.30
2021,04,17,05,10,6.40
2021,04,17,05,11,6.30
2021,04,17,05,12,6.30
2021,04,17,05,13,6.30
2021,04,17,05,14,6.30
2021,04,17,05,15,6.40
2021,04,17,05,16,6.40
2021,04,17,05,17,6.50
2021,04,17,05,18,6.60
2021,04,17,05,19,6.70
2021,04,17,05,20,6.80
2021,04,17,05,21,6.90
2021,04,17,05,22,7.00
2021,04,17,05,23,7.00
2021,04,17,05,24,7.00
2021,04,17,05,25,6.90
2021,04,17,05,26,6.80
2021,04,17,05,27,6.80
2021,04,17,05,28,6.70
2021,04,17,05,29,6.60
2021,04,17,05,30,6.60
2021,04,17,05,31,6.60
2021,04,17,05,32,6.50
2021,04,17,05,33,6.50
2021,04,17,05,34,6.40
2021,04,17,05,35,6.40
2021,04,17,05,36,6.40
2021,04,17,05,37,6.40
2021,04,17,05,38,6.50
2021,04,17,05,39,6.50
2021,04,17,05,40,6.40
2021,04,17,05,41,6.40
2021,04,17,05,42,6.40
2021,04,17,05,43,6.40
2021,04,17,05,44,6.40
2021,04,17,05,45,6.30
2021,04,17,05,46,6.30
2021,04,17,05,47,6.30
2021,04,17,05,48,6.30
2021,04,17,05,49,6.30
2021,04,17,05,50,6.30
2021,04,17,05,51,6.30
2021,04,17,05,52,6.30
2021,04,17,05,53,6.30
2021,04,17,05,54,6.30
2021,04,17,05,55,6.20
2021,04,17,05,56,6.20
2021,04,17,05,57,6.20
2021,04,17,05,58,6.20
2021,04,17,05,59,6.20
2021,04,17,06,00,6.30
2021,04,17,06,01,6.30
2021,04,17,06,02,6.30
2021,04,17,06,03,6.30
2021,04,17,06,04,6.30
2021,04,17,06,05,6.30
2021,04,17,06,06,6.40
2021,04,17,06,07,6.30
2021,04,17,06,08,6.30
2021,04,17,06,09,6.30
2021,04,17,06,10,6.30
2021,04,17,06,11,6.30
2021,04,17,06,12,6.30
2021,04,17,06,13,6.30
2021,04,17,06,14,6.30
2021,04,17,06,15,6.30
2021,04,17,06,16,6.20
2021,04,17,06,17,6.20
2021,04,17,06,18,6.20
2021,04,17,06,19,6.20
2021,04,17,06,20,6.20
2021,04,17,06,21,6.20
2021,04,17,06,22,6.20
2021,04,17,06,23,6.30
2021,04,17,06,24,6.30
2021,04,17,06,25,6.30
2021,04,17,06,26,6.30
2021,04,17,06,27,6.40
2021,04,17,06,28,6.40
2021,04,17,06,29,6.40
2021,04,17,06,30,6.40
2021,04,17,06,31,6.50
2021,04,17,06,32,6.50
2021,04,17,06,33,6.50
2021,04,17,06,34,6.50
2021,04,17,06,35,6.40
2021,04,17,06,36,6.40
2021,04,17,06,37,6.40
2021,04,17,06,38,6.30
2021,04,17,06,39,6.30
2021,04,17,06,40,6.30
2021,04,17,06,41,6.20
2021,04,17,06,42,6.20
2021,04,17,06,43,6.20
2021,04,17,06,44,6.10
2021,04,17,06,45,6.10
2021,04,17,06,46,6.20
2021,04,17,06,47,6.20
2021,04,17,06,48,6.20
2021,04,17,06,49,6.20
2021,04,17,06,50,6.20
2021,04,17,06,51,6.20
2021,04,17,06,52,6.10
2021,04,17,06,53,6.10
2021,04,17,06,54,6.20
2021,04,17,06,55,6.20
2021,04,17,06,56,6.20
2021,04,17,06,57,6.20
2021,04,17,06,58,6.30
2021,04,17,06,59,6.30
2021,04,17,07,00,6.30
2021,04,17,07,01,6.30
2021,04,17,07,02,6.30
2021,04,17,07,03,6.30
2021,04,17,07,04,6.30
2021,04,17,07,05,6.20
2021,04,17,07,06,6.20
2021,04,17,07,07,6.20
2021,04,17,07,08,6.20
2021,04,17,07,09,6.20
2021,04,17,07,10,6.20
2021,04,17,07,11,6.20
2021,04,17,07,12,6.20
2021,04,17,07,13,6.10
2021,04,17,07,14,6.10
2021,04,17,07,15,6.10
2021,04,17,07,16,6.10
2021,04,17,07,17,6.10
2021,04,17,07,18,6.20
2021,04,17,07,19,6.20
2021,04,17,07,20,6.20
2021,04,17,07,21,6.20
2021,04,17,07,22,6.30
2021,04,17,07,23,6.30
2021,04,17,07,24,6.30
2021,04,17,07,25,6.30
2021,04,17,07,26,6.30
2021,04,17,07,27,6.40
2021,04,17,07,28,6.40
2021,04,17,07,29,6.40
2021,04,17,07,30,6.40
2021,04,17,07,31,6.50
2021,04,17,07,32,6.50
2021,04,17,07,33,6.60
2021,04,17,07,34,6.60
2021,04,17,07,35,6.60
2021,04,17,07,36,6.60
2021,04,17,07,37,6.60
2021,04,17,07,38,6.70
2021,04,17,07,39,6.70
2021,04,17,07,40,6.70
2021,04,17,07,41,6.80
2021,04,17,07,42,6.80
2021,04,17,07,43,6.80
2021,04,17,07,44,6.90
2021,04,17,07,45,7.00
2021,04,17,07,46,7.10
2021,04,17,07,47,7.10
2021,04,17,07,48,7.20
2021,04,17,07,49,7.30
2021,04,17,07,50,7.40
2021,04,17,07,51,7.50
2021,04,17,07,52,7.60
2021,04,17,07,53,7.60
2021,04,17,07,54,7.70
2021,04,17,07,55,7.80
2021,04,17,07,56,7.90
2021,04,17,07,57,8.00
2021,04,17,07,58,8.10
2021,04,17,07,59,8.20
2021,04,17,08,00,8.30
2021,04,17,08,01,8.40
2021,04,17,08,02,8.50
2021,04,17,08,03,8.70
2021,04,17,08,04,8.80
2021,04,17,08,05,9.00
2021,04,17,08,06,9.10
2021,04,17,08,07,9.10
2021,04,17,08,08,9.30
2021,04,17,08,09,9.40
2021,04,17,08,10,9.50
2021,04,17,08,11,9.60
2021,04,17,08,12,9.70
2021,04,17,08,13,9.90
2021,04,17,08,14,10.00
2021,04,17,08,15,10.10
2021,04,17,08,16,10.20
2021,04,17,08,17,10.20
2021,04,17,08,18,10.30
2021,04,17,08,19,10.40
2021,04,17,08,20,10.50
2021,04,17,08,21,10.50
2021,04,17,08,22,10.60
2021,04,17,08,23,10.70
2021,04,17,08,24,10.70
2021,04,17,08,25,10.80
2021,04,17,08,26,10.80
2021,04,17,08,27,10.80
2021,04,17,08,28,10.90
2021,04,17,08,29,11.00
2021,04,17,08,30,11.10
2021,04,17,08,31,11.20
2021,04,17,08,32,11.20
2021,04,17,08,33,11.30
2021,04,17,08,34,11.40
2021,04,17,08,35,11.50
2021,04,17,08,36,11.50
2021,04,17,08,37,11.60
2021,04,17,08,38,11.70
2021,04,17,08,39,11.70
2021,04,17,08,40,11.80
2021,04,17,08,41,11.80
2021,04,17,08,42,11.90
2021,04,17,08,43,12.00
2021,04,17,08,44,12.00
2021,04,17,08,45,12.10
2021,04,17,08,46,12.10
2021,04,17,08,47,12.20
2021,04,17,08,48,12.20
2021,04,17,08,49,12.30
2021,04,17,08,50,12.30
2021,04,17,08,51,12.40
2021,04,17,08,52,12.40
2021,04,17,08,53,12.40
2021,04,17,08,54,12.40
2021,04,17,08,55,12.50
2021,04,17,08,56,12.50
2021,04,17,08,57,12.60
2021,04,17,08,58,12.60
2021,04,17,08,59,12.70
2021,04,17,09,00,12.70
2021,04,17,09,01,12.80
2021,04,17,09,02,12.90
2021,04,17,09,03,13.00
2021,04,17,09,04,13.10
2021,04,17,09,05,13.20
2021,04,17,09,06,13.30
2021,04,17,09,07,13.30
2021,04,17,09,08,13.40
2021,04,17,09,09,13.50
2021,04,17,09,10,13.60
2021,04,17,09,11,13.70
2021,04,17,09,12,13.80
2021,04,17,09,13,13.90
2021,04,17,09,14,14.00
2021,04,17,09,15,14.10
2021,04,17,09,16,14.20
2021,04,17,09,17,14.30
2021,04,17,09,18,14.40
2021,04,17,09,19,14.50
2021,04,17,09,20,14.50
2021,04,17,09,21,14.60
2021,04,17,09,22,14.70
2021,04,17,09,23,14.80
2021,04,17,09,24,14.90
2021,04,17,09,25,15.00
2021,04,17,09,26,15.10
2021,04,17,09,27,15.20
2021,04,17,09,28,15.20
2021,04,17,09,29,15.20
2021,04,17,09,30,15.20
2021,04,17,09,31,15.30
2021,04,17,09,32,15.40
2021,04,17,09,33,15.50
2021,04,17,09,34,15.60
2021,04,17,09,35,15.60
2021,04,17,09,36,15.70
2021,04,17,09,37,15.80
2021,04,17,09,38,15.90
2021,04,17,09,39,15.90
2021,04,17,09,40,16.00
2021,04,17,09,41,16.10
2021,04,17,09,42,16.10
2021,04,17,09,43,16.20
2021,04,17,09,44,16.30
2021,04,17,09,45,16.30
2021,04,17,09,46,16.30
2021,04,17,09,47,16.30
2021,04,17,09,48,16.30
2021,04,17,09,49,16.30
2021,04,17,09,50,16.30
2021,04,17,09,51,16.30
2021,04,17,09,52,16.30
2021,04,17,09,53,16.30
2021,04,17,09,54,16.30
2021,04,17,09,55,16.40
2021,04,17,09,56,16.40
2021,04,17,09,57,16.40
2021,04,17,09,58,16.50
2021,04,17,09,59,16.50
2021,04,17,10,00,16.50
2021,04,17,10,01,16.60
2021,04,17,10,02,16.60
2021,04,17,10,03,16.60
2021,04,17,10,04,16.60
2021,04,17,10,05,16.70
2021,04,17,10,06,16.70
2021,04,17,10,07,16.80
2021,04,17,10,08,16.80
2021,04,17,10,09,16.80
2021,04,17,10,10,16.80
2021,04,17,10,11,16.80
2021,04,17,10,12,16.80
2021,04,17,10,13,16.80
2021,04,17,10,14,16.80
2021,04,17,10,15,16.70
2021,04,17,10,16,16.70
2021,04,17,10,17,16.70
2021,04,17,10,18,16.80
2021,04,17,10,19,16.80
2021,04,17,10,20,16.70
2021,04,17,10,21,16.70
2021,04,17,10,22,16.70
2021,04,17,10,23,16.60
2021,04,17,10,24,16.60
2021,04,17,10,25,16.60
2021,04,17,10,26,16.60
2021,04,17,10,27,16.70
2021,04,17,10,28,16.70
2021,04,17,10,29,16.80
2021,04,17,10,30,16.90
2021,04,17,10,31,16.90
2021,04,17,10,32,17.00
2021,04,17,10,33,17.00
2021,04,17,10,34,17.00
2021,04,17,10,35,17.00
2021,04,17,10,36,17.10
2021,04,17,10,37,17.10
2021,04,17,10,38,17.10
2021,04,17,10,39,17.10
2021,04,17,10,40,17.20
2021,04,17,10,41,17.20
2021,04,17,10,42,17.20
2021,04,17,10,43,17.30
2021,04,17,10,44,17.30
2021,04,17,10,45,17.40
2021,04,17,10,46,17.40
2021,04,17,10,47,17.50
2021,04,17,10,48,17.60
2021,04,17,10,49,17.70
2021,04,17,10,50,17.80
2021,04,17,10,51,17.90
2021,04,17,10,52,17.90
2021,04,17,10,53,18.00
2021,04,17,10,54,18.10
2021,04,17,10,55,18.10
2021,04,17,10,56,18.20
2021,04,17,10,57,18.20
2021,04,17,10,58,18.20
2021,04,17,10,59,18.20
2021,04,17,11,00,18.20
2021,04,17,11,01,18.20
2021,04,17,11,02,18.30
2021,04,17,11,03,18.30
2021,04,17,11,04,18.30
2021,04,17,11,05,18.30
2021,04,17,11,06,18.30
2021,04,17,11,07,18.40
2021,04,17,11,08,18.40
2021,04,17,11,09,18.40
2021,04,17,11,10,18.40
2021,04,17,11,11,18.50
2021,04,17,11,12,18.60
2021,04,17,11,13,18.70
2021,04,17,11,14,18.80
2021,04,17,11,15,18.80
2021,04,17,11,16,18.90
2021,04,17,11,17,18.90
2021,04,17,11,18,18.90
2021,04,17,11,19,18.90
2021,04,17,11,20,18.80
2021,04,17,11,21,18.70
2021,04,17,11,22,18.70
2021,04,17,11,23,18.70
2021,04,17,11,24,18.70
2021,04,17,11,25,18.80
2021,04,17,11,26,18.80
2021,04,17,11,27,18.90
2021,04,17,11,28,18.90
2021,04,17,11,29,19.00
2021,04,17,11,30,19.10
2021,04,17,11,31,19.20
2021,04,17,11,32,19.20
2021,04,17,11,33,19.20
2021,04,17,11,34,19.20
2021,04,17,11,35,19.20
2021,04,17,11,36,19.10
2021,04,17,11,37,19.10
2021,04,17,11,38,19.00
2021,04,17,11,39,18.90
2021,04,17,11,40,18.80
2021,04,17,11,41,18.70
2021,04,17,11,42,18.60
2021,04,17,11,43,18.60
2021,04,17,11,44,18.50
2021,04,17,11,45,18.40
2021,04,17,11,46,18.40
2021,04,17,11,47,18.40
2021,04,17,11,48,18.50
2021,04,17,11,49,18.50
2021,04,17,11,50,18.50
2021,04,17,11,51,18.40
2021,04,17,11,52,18.40
2021,04,17,11,53,18.50
2021,04,17,11,54,18.50
2021,04,17,11,55,18.60
2021,04,17,11,56,18.60
2021,04,17,11,57,18.70
2021,04,17,11,58,18.70
2021,04,17,11,59,18.80
2021,04,17,12,00,18.80
2021,04,17,12,01,18.80
2021,04,17,12,02,18.90
2021,04,17,12,03,18.90
2021,04,17,12,04,19.00
2021,04,17,12,05,19.10
2021,04,17,12,06,19.10
2021,04,17,12,07,19.20
2021,04,17,12,08,19.20
2021,04,17,12,09,19.20
2021,04,17,12,10,19.30
2021,04,17,12,11,19.40
2021,04,17,12,12,19.50
2021,04,17,12,13,19.60
2021,04,17,12,14,19.70
2021,04,17,12,15,19.80
2021,04,17,12,16,19.90
2021,04,17,12,17,20.10
2021,04,17,12,18,20.20
2021,04,17,12,19,20.30
2021,04,17,12,20,20.30
2021,04,17,12,21,20.40
2021,04,17,12,22,20.40
2021,04,17,12,23,20.30
2021,04,17,12,24,20.20
2021,04,17,12,25,20.10
2021,04,17,12,26,20.00
2021,04,17,12,27,19.90
2021,04,17,12,28,19.90
2021,04,17,12,29,19.90
2021,04,17,12,30,19.90
2021,04,17,12,31,19.90
2021,04,17,12,32,20.00
2021,04,17,12,33,20.00
2021,04,17,12,34,20.10
2021,04,17,12,35,20.20
2021,04,17,12,36,20.30
2021,04,17,12,37,20.30
2021,04,17,12,38,20.30
2021,04,17,12,39,20.40
2021,04,17,12,40,20.50
2021,04,17,12,41,20.60
2021,04,17,12,42,20.60
2021,04,17,12,43,20.60
2021,04,17,12,44,20.60
2021,04,17,12,45,20.60
2021,04,17,12,46,20.70
2021,04,17,12,47,20.80
2021,04,17,12,48,20.80
2021,04,17,12,49,20.90
2021,04,17,12,50,21.10
2021,04,17,12,51,21.10
2021,04,17,12,52,21.00
2021,04,17,12,53,21.00
2021,04,17,12,54,21.00
2021,04,17,12,55,21.00
2021,04,17,12,56,21.10
2021,04,17,12,57,21.10
2021,04,17,12,58,21.20
2021,04,17,12,59,21.20
2021,04,17,13,00,21.20
2021,04,17,13,01,21.10
2021,04,17,13,02,21.00
2021,04,17,13,03,20.90
2021,04,17,13,04,20.80
2021,04,17,13,05,20.70
2021,04,17,13,06,20.60
2021,04,17,13,07,20.40
2021,04,17,13,08,20.40
2021,04,17,13,09,20.30
2021,04,17,13,10,20.30
2021,04,17,13,11,20.20
2021,04,17,13,12,20.30
2021,04,17,13,13,20.30
2021,04,17,13,14,20.20
2021,04,17,13,15,20.20
2021,04,17,13,16,20.20
2021,04,17,13,17,20.20
2021,04,17,13,18,20.30
2021,04,17,13,19,20.30
2021,04,17,13,20,20.40
2021,04,17,13,21,20.60
2021,04,17,13,22,20.70
2021,04,17,13,23,20.80
2021,04,17,13,24,20.80
2021,04,17,13,25,20.90
2021,04,17,13,26,20.90
2021,04,17,13,27,20.80
2021,04,17,13,28,20.80
2021,04,17,13,29,20.70
2021,04,17,13,30,20.70
2021,04,17,13,31,20.60
2021,04,17,13,32,20.60
2021,04,17,13,33,20.60
2021,04,17,13,34,20.50
2021,04,17,13,35,20.50
2021,04,17,13,36,20.40
2021,04,17,13,37,20.30
2021,04,17,13,38,20.20
2021,04,17,13,39,20.10
2021,04,17,13,40,20.10
2021,04,17,13,41,20.10
2021,04,17,13,42,20.20
2021,04,17,13,43,20.10
2021,04,17,13,44,20.10
2021,04,17,13,45,20.10
2021,04,17,13,46,20.10
2021,04,17,13,47,20.20
2021,04,17,13,48,20.20
2021,04,17,13,49,20.30
2021,04,17,13,50,20.30
2021,04,17,13,51,20.30
2021,04,17,13,52,20.30
2021,04,17,13,53,20.40
2021,04,17,13,54,20.40
2021,04,17,13,55,20.30
2021,04,17,13,56,20.20
2021,04,17,13,57,20.10
2021,04,17,13,58,20.00
2021,04,17,13,59,20.00
2021,04,17,14,00,20.00
2021,04,17,14,01,20.00
2021,04,17,14,02,20.10
2021,04,17,14,03,20.10
2021,04,17,14,04,20.10
2021,04,17,14,05,20.20
2021,04,17,14,06,20.30
2021,04,17,14,07,20.40
2021,04,17,14,08,20.50
2021,04,17,14,09,20.60
2021,04,17,14,10,20.60
2021,04,17,14,11,20.50
2021,04,17,14,12,20.50
2021,04,17,14,13,20.50
2021,04,17,14,14,20.40
2021,04,17,14,15,20.40
2021,04,17,14,16,20.40
2021,04,17,14,17,20.40
2021,04,17,14,18,20.40
2021,04,17,14,19,20.30
2021,04,17,14,20,20.30
2021,04,17,14,21,20.30
2021,04,17,14,22,20.30
2021,04,17,14,23,20.30
2021,04,17,14,24,20.30
2021,04,17,14,25,20.30
2021,04,17,14,26,20.20
2021,04,17,14,27,20.30
2021,04,17,14,28,20.30
2021,04,17,14,29,20.30
2021,04,17,14,30,20.30
2021,04,17,14,31,20.30
2021,04,17,14,32,20.30
2021,04,17,14,33,20.30
2021,04,17,14,34,20.30
2021,04,17,14,35,20.30
2021,04,17,14,36,20.30
2021,04,17,14,37,20.30
2021,04,17,14,38,20.20
2021,04,17,14,39,20.20
2021,04,17,14,40,20.20
2021,04,17,14,41,20.20
2021,04,17,14,42,20.20
2021,04,17,14,43,20.20
2021,04,17,14,44,20.20
2021,04,17,14,45,20.20
2021,04,17,14,46,20.20
2021,04,17,14,47,20.20
2021,04,17,14,48,20.10
2021,04,17,14,49,20.10
2021,04,17,14,50,20.20
2021,04,17,14,51,20.20
2021,04,17,14,52,20.20
2021,04,17,14,53,20.20
2021,04,17,14,54,20.20
2021,04,17,14,55,20.20
2021,04,17,14,56,20.20
2021,04,17,14,57,20.30
2021,04,17,14,58,20.30
2021,04,17,14,59,20.30
2021,04,17,15,00,20.30
2021,04,17,15,01,20.20
2021,04,17,15,02,20.20
2021,04,17,15,03,20.20
2021,04,17,15,04,20.20
2021,04,17,15,05,20.10
2021,04,17,15,06,20.10
2021,04,17,15,07,20.10
2021,04,17,15,08,20.20
2021,04,17,15,09,20.20
2021,04,17,15,10,20.20
2021,04,17,15,11,20.20
2021,04,17,15,12,20.20
2021,04,17,15,13,20.30
2021,04,17,15,14,20.40
2021,04,17,15,15,20.40
2021,04,17,15,16,20.50
2021,04,17,15,17,20.50
2021,04,17,15,18,20.50
2021,04,17,15,19,20.40
2021,04,17,15,20,20.40
2021,04,17,15,21,20.40
2021,04,17,15,22,20.30
2021,04,17,15,23,20.30
2021,04,17,15,24,20.30
2021,04,17,15,25,20.30
2021,04,17,15,26,20.40
2021,04,17,15,27,20.40
2021,04,17,15,28,20.40
2021,04,17,15,29,20.40
2021,04,17,15,30,20.50
2021,04,17,15,31,20.50
2021,04,17,15,32,20.50
2021,04,17,15,33,20.50
2021,04,17,15,34,20.60
2021,04,17,15,35,20.60
2021,04,17,15,36,20.60
2021,04,17,15,37,20.60
2021,04,17,15,38,20.60
2021,04,17,15,39,20.60
2021,04,17,15,40,20.60
2021,04,17,15,41,20.60
2021,04,17,15,42,20.60
2021,04,17,15,43,20.60
2021,04,17,15,44,20.60
2021,04,17,15,45,20.60
2021,04,17,15,46,20.60
2021,04,17,15,47,20.60
2021,04,17,15,48,20.60
2021,04,17,15,49,20.50
2021,04,17,15,50,20.50
2021,04,17,15,51,20.60
2021,04,17,15,52,20.60
2021,04,17,15,53,20.60
2021,04,17,15,54,20.60
2021,04,17,15,55,20.60
2021,04,17,15,56,20.60
2021,04,17,15,57,20.60
2021,04,17,15,58,20.60
2021,04,17,15,59,20.60
2021,04,17,16,00,20.60
2021,04,17,16,01,20.60
2021,04,17,16,02,20.60
2021,04,17,16,03,20.60
2021,04,17,16,04,20.60
2021,04,17,16,05,20.70
2021,04,17,16,06,20.70
2021,04,17,16,07,20.80
2021,04,17,16,08,20.90
2021,04,17,16,09,20.90
2021,04,17,16,10,21.00
2021,04,17,16,11,21.20
2021,04,17,16,12,21.20
2021,04,17,16,13,21.30
2021,04,17,16,14,21.40
2021,04,17,16,15,21.40
2021,04,17,16,16,21.40
2021,04,17,16,17,21.40
2021,04,17,16,18,21.40
2021,04,17,16,19,21.40
2021,04,17,16,20,21.40
2021,04,17,16,21,21.40
2021,04,17,16,22,21.40
2021,04,17,16,23,21.40
2021,04,17,16,24,21.40
2021,04,17,16,25,21.40
2021,04,17,16,26,21.30
2021,04,17,16,27,21.30
2021,04,17,16,28,21.40
2021,04,17,16,29,21.40
2021,04,17,16,30,21.40
2021,04,17,16,31,21.50
2021,04,17,16,32,21.50
2021,04,17,16,33,21.60
2021,04,17,16,34,21.60
2021,04,17,16,35,21.60
2021,04,17,16,36,21.60
2021,04,17,16,37,21.60
2021,04,17,16,38,21.60
2021,04,17,16,39,21.60
2021,04,17,16,40,21.60
2021,04,17,16,41,21.60
2021,04,17,16,42,21.50
2021,04,17,16,43,21.40
2021,04,17,16,44,21.40
2021,04,17,16,45,21.30
2021,04,17,16,46,21.30
2021,04,17,16,47,21.20
2021,04,17,16,48,21.20
2021,04,17,16,49,21.30
2021,04,17,16,50,21.20
2021,04,17,16,51,21.20
2021,04,17,16,52,21.00
2021,04,17,16,53,20.90
2021,04,17,16,54,20.90
2021,04,17,16,55,20.80
2021,04,17,16,56,20.80
2021,04,17,16,57,20.70
2021,04,17,16,58,20.80
2021,04,17,16,59,20.70
2021,04,17,17,00,20.70
2021,04,17,17,01,20.70
2021,04,17,17,02,20.70
2021,04,17,17,03,20.70
2021,04,17,17,04,20.70
2021,04,17,17,05,20.70
2021,04,17,17,06,20.80
2021,04,17,17,07,20.80
2021,04,17,17,08,20.90
2021,04,17,17,09,20.90
2021,04,17,17,10,21.00
2021,04,17,17,11,21.10
2021,04,17,17,12,21.10
2021,04,17,17,13,21.20
2021,04,17,17,14,21.20
2021,04,17,17,15,21.30
2021,04,17,17,16,21.30
2021,04,17,17,17,21.40
2021,04,17,17,18,21.40
2021,04,17,17,19,21.40
2021,04,17,17,20,21.50
2021,04,17,17,21,21.50
2021,04,17,17,22,21.60
2021,04,17,17,23,21.60
2021,04,17,17,24,21.50
2021,04,17,17,25,21.50
2021,04,17,17,26,21.50
2021,04,17,17,27,21.40
2021,04,17,17,28,21.40
2021,04,17,17,29,21.40
2021,04,17,17,30,21.40
2021,04,17,17,31,21.30
2021,04,17,17,32,21.30
2021,04,17,17,33,21.30
2021,04,17,17,34,21.30
2021,04,17,17,35,21.30
2021,04,17,17,36,21.30
2021,04,17,17,37,21.30
2021,04,17,17,38,21.20
2021,04,17,17,39,21.20
2021,04,17,17,40,21.20